This is the latest recevied weather packets stored in our database for station/object N0MPM-4. If no packets are shown the sender has not sent any weather packets the latest 10 day(s).
| Time | Temp. | Humidity | Pressure | Rain* | Wind** | Luminosity | Snow |
|---|---|---|---|---|---|---|---|
| 1787513663 | 25° C | 57% | 1018.8 hPa | 0 mm | - | - | - |
| 1787513602 | 25° C | 57% | 1018.8 hPa | 0 mm | - | - | - |
| 1787513302 | 25° C | 55% | 1018.9 hPa | 0 mm | - | - | - |
| 1787513002 | 25° C | 56% | 1018.8 hPa | 0 mm | - | - | - |
| 1787512943 | 25° C | 56% | 1018.8 hPa | 0 mm | - | - | - |
| 1787512702 | 25° C | 56% | 1018.7 hPa | 0 mm | - | - | - |
| 1787512583 | 25° C | 56% | 1018.8 hPa | 0 mm | - | - | - |
| 1787512402 | 25° C | 55% | 1018.8 hPa | 0 mm | - | - | - |
| 1787512223 | 24.44° C | 57% | 1018.8 hPa | 0 mm | - | - | - |
| 1787512102 | 24.44° C | 58% | 1018.8 hPa | 0 mm | - | - | - |
| 1787511863 | 24.44° C | 55% | 1018.9 hPa | 0 mm | - | - | - |
| 1787511802 | 24.44° C | 55% | 1019 hPa | 0 mm | - | - | - |
| 1787511502 | 24.44° C | 61% | 1019 hPa | 0 mm | - | - | - |
| 1787511202 | 24.44° C | 60% | 1019 hPa | 0 mm | - | - | - |
| 1787511144 | 24.44° C | 59% | 1019 hPa | 0 mm | - | - | - |
| 1787510902 | 24.44° C | 58% | 1019.1 hPa | 0 mm | - | - | - |
| 1787510783 | 24.44° C | 59% | 1019.1 hPa | 0 mm | - | - | - |
| 1787510602 | 24.44° C | 59% | 1019.1 hPa | 0 mm | - | - | - |
| 1787510423 | 23.89° C | 62% | 1019.2 hPa | 0 mm | - | - | - |
| 1787510302 | 23.89° C | 61% | 1019.2 hPa | 0 mm | - | - | - |
| 1787510063 | 23.89° C | 58% | 1019.2 hPa | 0 mm | - | - | - |
| 1787510002 | 23.89° C | 56% | 1019.2 hPa | 0 mm | - | - | - |
| 1787509702 | 23.89° C | 56% | 1019.3 hPa | 0 mm | - | - | - |
| 1787509402 | 23.89° C | 56% | 1019.5 hPa | 0 mm | - | - | - |
| 1787509344 | 23.89° C | 56% | 1019.5 hPa | 0 mm | - | - | - |
* Rain latest hour (hover to see other rain measurements)
** Current wind speed in m/s (hover to see current wind gust speed)